�������l�o���
Date,Time,MP-1(��Sv/h),MP-2(��Sv/h),MP-3(��Sv/h),MP-4(��Sv/h),MP-5(��Sv/h),MP-6(��Sv/h),MP-7(��Sv/h),MP-8(��Sv/h),����,����(m/s),���J
2021/02/20,00:00,0.649,0.941,0.598,1.180,0.828,0.376,0.663,0.621,��,1.8,��
2021/02/20,00:10,0.648,0.941,0.598,1.182,0.829,0.377,0.664,0.621,�쐼,3.3,��
2021/02/20,00:20,0.649,0.939,0.599,1.181,0.831,0.376,0.664,0.622,�쐼,5.1,��
2021/02/20,00:30,0.647,0.941,0.597,1.181,0.828,0.376,0.665,0.621,���쐼,3.9,��
2021/02/20,00:40,0.649,0.940,0.598,1.179,0.831,0.378,0.663,0.622,���쐼,3.0,��
2021/02/20,00:50,0.646,0.941,0.600,1.182,0.828,0.377,0.663,0.621,���k��,2.3,��
2021/02/20,01:00,0.650,0.941,0.596,1.182,0.831,0.377,0.664,0.621,���k��,3.0,��
2021/02/20,01:10,0.648,0.942,0.598,1.179,0.830,0.377,0.664,0.623,��,3.8,��
2021/02/20,01:20,0.650,0.940,0.598,1.181,0.829,0.377,0.664,0.622,���쐼,5.5,��
2021/02/20,01:30,0.649,0.939,0.599,1.182,0.830,0.376,0.664,0.622,���쐼,6.8,��
2021/02/20,01:40,0.650,0.940,0.598,1.182,0.829,0.377,0.665,0.623,���쐼,6.1,��
2021/02/20,01:50,0.649,0.940,0.599,1.182,0.829,0.377,0.664,0.621,���쐼,5.5,��
2021/02/20,02:00,0.649,0.941,0.599,1.181,0.830,0.377,0.663,0.621,��,4.0,��
2021/02/20,02:10,0.650,0.938,0.600,1.179,0.829,0.377,0.664,0.623,��,3.6,��
2021/02/20,02:20,0.647,0.943,0.598,1.181,0.827,0.375,0.663,0.624,��,2.3,��
2021/02/20,02:30,0.650,0.942,0.598,1.180,0.828,0.377,0.665,0.622,���쐼,1.5,��
2021/02/20,02:40,0.649,0.940,0.599,1.181,0.827,0.377,0.664,0.622,���쐼,2.6,��
2021/02/20,02:50,0.649,0.938,0.598,1.180,0.829,0.377,0.665,0.621,�쐼,2.5,��
2021/02/20,03:00,0.649,0.943,0.598,1.179,0.830,0.377,0.665,0.623,���쐼,2.3,��
2021/02/20,03:10,0.649,0.942,0.599,1.181,0.827,0.377,0.663,0.623,��,2.8,��
2021/02/20,03:20,0.648,0.941,0.599,1.181,0.828,0.376,0.664,0.621,���쐼,2.6,��
2021/02/20,03:30,0.649,0.942,0.598,1.179,0.828,0.376,0.664,0.623,��쓌,1.2,��
2021/02/20,03:40,0.649,0.940,0.598,1.179,0.829,0.378,0.664,0.624,�쓌,2.6,��
2021/02/20,03:50,0.648,0.942,0.597,1.182,0.829,0.377,0.664,0.621,��쓌,3.3,��
2021/02/20,04:00,0.650,0.942,0.600,1.181,0.829,0.378,0.663,0.624,��,4.3,��
2021/02/20,04:10,0.648,0.943,0.600,1.180,0.828,0.378,0.664,0.621,��쐼,3.3,��
2021/02/20,04:20,0.650,0.941,0.598,1.179,0.827,0.378,0.665,0.623,�쐼,2.2,��
2021/02/20,04:30,0.649,0.939,0.598,1.182,0.828,0.378,0.665,0.623,�쐼,3.4,��
2021/02/20,04:40,0.648,0.940,0.598,1.179,0.828,0.377,0.662,0.622,���쐼,3.9,��
2021/02/20,04:50,0.650,0.939,0.598,1.180,0.829,0.377,0.667,0.623,�쐼,3.8,��
2021/02/20,05:00,0.648,0.941,0.597,1.180,0.827,0.377,0.663,0.623,���쐼,3.9,��
2021/02/20,05:10,0.650,0.940,0.598,1.178,0.828,0.378,0.665,0.624,���쐼,3.5,��
2021/02/20,05:20,0.648,0.939,0.598,1.181,0.828,0.377,0.664,0.622,���쐼,3.7,��
2021/02/20,05:30,0.651,0.939,0.596,1.181,0.830,0.377,0.665,0.624,���쐼,4.3,��
2021/02/20,05:40,0.649,0.940,0.599,1.181,0.829,0.377,0.666,0.624,�쐼,4.0,��
2021/02/20,05:50,0.650,0.939,0.598,1.178,0.828,0.377,0.666,0.623,�쐼,3.3,��
2021/02/20,06:00,0.651,0.940,0.597,1.181,0.829,0.377,0.666,0.624,��쐼,2.8,��
2021/02/20,06:10,0.648,0.940,0.596,1.178,0.827,0.377,0.664,0.621,��쐼,2.2,��
2021/02/20,06:20,0.650,0.940,0.600,1.180,0.828,0.376,0.667,0.623,�쐼,2.3,��
2021/02/20,06:30,0.650,0.938,0.599,1.180,0.829,0.376,0.666,0.624,��쐼,2.3,��
2021/02/20,06:40,0.649,0.941,0.597,1.180,0.827,0.376,0.665,0.623,��,3.0,��
2021/02/20,06:50,0.649,0.941,0.597,1.180,0.826,0.376,0.665,0.624,��,3.7,��
2021/02/20,07:00,0.649,0.939,0.600,1.181,0.828,0.376,0.666,0.623,��쐼,2.9,��
2021/02/20,07:10,0.651,0.941,0.598,1.178,0.827,0.377,0.666,0.623,�쐼,2.6,��
2021/02/20,07:20,0.648,0.941,0.597,1.181,0.828,0.378,0.666,0.622,�쐼,2.3,��
2021/02/20,07:30,0.649,0.941,0.599,1.182,0.830,0.376,0.666,0.624,��쐼,2.6,��
2021/02/20,07:40,0.650,0.939,0.599,1.182,0.829,0.377,0.667,0.623,��쐼,2.0,��
2021/02/20,07:50,0.650,0.941,0.598,1.180,0.828,0.379,0.665,0.623,��쓌,1.2,��
2021/02/20,08:00,0.650,0.942,0.599,1.180,0.829,0.377,0.667,0.623,��쓌,2.5,��
2021/02/20,08:10,0.650,0.942,0.598,1.180,0.828,0.376,0.665,0.622,��쓌,3.4,��
2021/02/20,08:20,0.649,0.941,0.600,1.184,0.828,0.379,0.666,0.622,��쓌,2.9,��
2021/02/20,08:30,0.651,0.939,0.599,1.182,0.832,0.378,0.667,0.623,��쓌,3.0,��
2021/02/20,08:40,0.653,0.939,0.601,1.181,0.831,0.378,0.665,0.623,��,3.7,��
2021/02/20,08:50,0.654,0.941,0.599,1.182,0.831,0.378,0.666,0.624,��,4.0,��
2021/02/20,09:00,0.652,0.940,0.601,1.180,0.829,0.378,0.667,0.624,��,3.5,��
2021/02/20,09:10,0.649,0.943,0.601,1.183,0.830,0.379,0.666,0.624,��,3.4,��
2021/02/20,09:20,0.651,0.942,0.599,1.182,0.830,0.379,0.666,0.622,��쓌,3.1,��
2021/02/20,09:30,0.652,0.940,0.600,1.184,0.832,0.380,0.665,0.624,��쓌,3.9,��
2021/02/20,09:40,0.652,0.942,0.601,1.181,0.831,0.381,0.665,0.623,��쓌,5.1,��
2021/02/20,09:50,0.653,0.940,0.601,1.184,0.830,0.379,0.666,0.624,��쓌,4.8,��
2021/02/20,10:00,0.650,0.941,0.601,1.181,0.830,0.379,0.664,0.624,��쓌,4.0,��
2021/02/20,10:10,0.652,0.943,0.600,1.184,0.830,0.379,0.666,0.626,��쓌,2.9,��
2021/02/20,10:20,0.654,0.942,0.600,1.184,0.833,0.380,0.665,0.624,�쓌,2.0,��
2021/02/20,10:30,0.654,0.943,0.601,1.184,0.832,0.379,0.665,0.625,���쓌,1.7,��
2021/02/20,10:40,0.653,0.942,0.601,1.185,0.832,0.380,0.666,0.625,���쐼,2.3,��
2021/02/20,10:50,0.652,0.942,0.603,1.184,0.832,0.380,0.666,0.625,��,5.7,��
2021/02/20,11:00,0.653,0.942,0.602,1.185,0.831,0.378,0.666,0.623,��,6.7,��
2021/02/20,11:10,0.652,0.942,0.601,1.183,0.833,0.380,0.667,0.622,��,6.8,��
2021/02/20,11:20,0.652,0.940,0.601,1.184,0.834,0.377,0.666,0.623,��,8.0,�L
2021/02/20,11:30,0.653,0.943,0.602,1.183,0.831,0.378,0.667,0.624,��,7.7,�L
2021/02/20,11:40,0.652,0.944,0.602,1.184,0.833,0.378,0.666,0.625,��,6.1,��
2021/02/20,11:50,0.651,0.945,0.602,1.186,0.832,0.379,0.665,0.625,��,6.6,��
2021/02/20,12:00,0.653,0.945,0.601,1.182,0.834,0.378,0.667,0.623,��,8.0,��
2021/02/20,12:10,0.652,0.943,0.602,1.186,0.832,0.379,0.667,0.626,��,5.3,��
2021/02/20,12:20,0.653,0.944,0.602,1.189,0.833,0.379,0.666,0.623,��,7.2,��
2021/02/20,12:30,0.652,0.946,0.601,1.186,0.833,0.381,0.667,0.625,�쐼,7.2,��
2021/02/20,12:40,0.654,0.944,0.602,1.186,0.834,0.382,0.667,0.624,���쐼,6.7,��
2021/02/20,12:50,0.654,0.947,0.601,1.185,0.834,0.381,0.666,0.621,���쐼,8.4,��
2021/02/20,13:00,0.653,0.944,0.603,1.186,0.835,0.381,0.668,0.623,��,8.8,��
2021/02/20,13:10,0.654,0.945,0.601,1.186,0.834,0.382,0.668,0.622,��,8.3,��
2021/02/20,13:20,0.653,0.946,0.600,1.188,0.836,0.381,0.667,0.623,��,6.8,��
2021/02/20,13:30,0.654,0.944,0.602,1.187,0.833,0.382,0.668,0.623,��,10.7,��
2021/02/20,13:40,0.656,0.942,0.601,1.186,0.833,0.380,0.667,0.622,��,9.7,��
2021/02/20,13:50,0.654,0.943,0.601,1.189,0.837,0.380,0.668,0.622,���쐼,8.8,��
2021/02/20,14:00,0.654,0.944,0.601,1.187,0.835,0.381,0.667,0.623,��,7.9,��
2021/02/20,14:10,0.655,0.943,0.601,1.188,0.834,0.381,0.669,0.622,��,6.6,��
2021/02/20,14:20,0.656,0.947,0.600,1.187,0.831,0.382,0.668,0.624,��,9.0,��
2021/02/20,14:30,0.655,0.947,0.601,1.189,0.834,0.380,0.668,0.622,��,4.3,��
2021/02/20,14:40,0.655,0.946,0.601,1.191,0.835,0.378,0.668,0.622,��,4.0,��
2021/02/20,14:50,0.655,0.946,0.602,1.186,0.834,0.381,0.666,0.622,��쓌,4.9,��
2021/02/20,15:00,0.655,0.945,0.599,1.188,0.834,0.380,0.669,0.622,��쓌,7.5,��
2021/02/20,15:10,0.654,0.945,0.601,1.186,0.834,0.381,0.667,0.621,��쓌,7.8,��
2021/02/20,15:20,0.653,0.943,0.602,1.190,0.835,0.380,0.667,0.622,��,7.2,��
2021/02/20,15:30,0.653,0.946,0.603,1.188,0.835,0.381,0.665,0.623,��쓌,5.4,��
2021/02/20,15:40,0.654,0.946,0.602,1.186,0.836,0.382,0.666,0.623,��쓌,6.5,��
2021/02/20,15:50,0.653,0.946,0.601,1.187,0.836,0.382,0.667,0.621,��쓌,6.8,��
2021/02/20,16:00,0.652,0.947,0.603,1.187,0.836,0.382,0.668,0.623,��쓌,6.1,��
2021/02/20,16:10,0.652,0.949,0.600,1.189,0.834,0.382,0.668,0.624,��,4.0,��
2021/02/20,16:20,0.653,0.949,0.601,1.187,0.835,0.382,0.669,0.626,�쐼,3.7,��
2021/02/20,16:30,0.656,0.946,0.604,1.188,0.833,0.381,0.668,0.624,�쐼,5.1,��
2021/02/20,16:40,0.654,0.949,0.602,1.188,0.834,0.382,0.667,0.626,��,6.9,��
2021/02/20,16:50,0.654,0.947,0.603,1.189,0.834,0.383,0.668,0.625,���쐼,7.6,��
2021/02/20,17:00,0.655,0.948,0.602,1.186,0.835,0.382,0.668,0.624,�쐼,8.2,��
2021/02/20,17:10,0.654,0.950,0.603,1.188,0.834,0.381,0.671,0.624,�쐼,8.4,��
2021/02/20,17:20,0.655,0.949,0.603,1.188,0.835,0.381,0.670,0.624,�쐼,9.7,��
2021/02/20,17:30,0.656,0.952,0.605,1.188,0.835,0.380,0.667,0.625,���쐼,8.6,��
2021/02/20,17:40,0.657,0.951,0.605,1.190,0.838,0.381,0.667,0.624,�쐼,8.8,��
2021/02/20,17:50,0.658,0.951,0.607,1.190,0.838,0.381,0.668,0.625,�쐼,9.7,��
2021/02/20,18:00,0.656,0.947,0.604,1.188,0.836,0.383,0.669,0.625,�쐼,11.7,��
2021/02/20,18:10,0.657,0.950,0.604,1.188,0.837,0.382,0.669,0.626,���쐼,10.5,��
2021/02/20,18:20,0.657,0.951,0.604,1.187,0.838,0.381,0.670,0.625,���쐼,8.0,��
2021/02/20,18:30,0.657,0.946,0.604,1.189,0.837,0.382,0.669,0.625,���쐼,5.8,��
2021/02/20,18:40,0.660,0.951,0.604,1.187,0.838,0.382,0.670,0.625,��쐼,2.6,��
2021/02/20,18:50,0.658,0.947,0.603,1.188,0.837,0.383,0.670,0.626,��,0.9,��
2021/02/20,19:00,0.658,0.947,0.604,1.188,0.839,0.382,0.669,0.626,�쐼,2.3,��
2021/02/20,19:10,0.656,0.950,0.605,1.187,0.841,0.382,0.670,0.625,���쐼,5.2,��
2021/02/20,19:20,0.656,0.949,0.604,1.189,0.840,0.383,0.668,0.625,�쐼,3.6,��
2021/02/20,19:30,0.656,0.946,0.606,1.189,0.835,0.383,0.669,0.626,���쐼,2.2,��
2021/02/20,19:40,0.657,0.947,0.604,1.187,0.837,0.382,0.668,0.625,�쐼,3.0,��
2021/02/20,19:50,0.656,0.950,0.606,1.190,0.839,0.382,0.670,0.623,��,1.9,��
2021/02/20,20:00,0.656,0.948,0.605,1.188,0.840,0.383,0.670,0.625,��쓌,2.9,��
2021/02/20,20:10,0.656,0.950,0.604,1.188,0.837,0.382,0.670,0.623,��쓌,3.3,��
2021/02/20,20:20,0.657,0.947,0.604,1.189,0.837,0.383,0.670,0.626,��,4.0,��
2021/02/20,20:30,0.658,0.950,0.604,1.188,0.840,0.381,0.671,0.625,�쐼,3.8,��
2021/02/20,20:40,0.656,0.948,0.604,1.192,0.838,0.383,0.670,0.624,��,2.2,��
2021/02/20,20:50,0.655,0.948,0.605,1.190,0.837,0.382,0.669,0.626,�k��,1.9,��
2021/02/20,21:00,0.656,0.948,0.603,1.187,0.839,0.382,0.670,0.627,��,1.5,��
2021/02/20,21:10,0.659,0.950,0.605,1.191,0.839,0.382,0.670,0.625,�쐼,2.9,��
2021/02/20,21:20,0.656,0.948,0.604,1.189,0.838,0.380,0.668,0.625,��,2.6,��
2021/02/20,21:30,0.657,0.947,0.605,1.191,0.840,0.381,0.670,0.624,��,4.0,�L
2021/02/20,21:40,0.657,0.947,0.605,1.187,0.838,0.382,0.669,0.625,���쐼,7.3,��
2021/02/20,21:50,0.653,0.948,0.603,1.191,0.837,0.381,0.670,0.625,���쐼,8.1,��
2021/02/20,22:00,0.654,0.949,0.603,1.187,0.839,0.381,0.669,0.623,��,5.8,��
2021/02/20,22:10,0.654,0.946,0.605,1.188,0.836,0.380,0.668,0.625,���쐼,2.8,��
2021/02/20,22:20,0.656,0.948,0.603,1.189,0.837,0.382,0.667,0.624,���k��,2.2,��
2021/02/20,22:30,0.655,0.948,0.604,1.190,0.839,0.380,0.667,0.625,���k��,3.9,��
2021/02/20,22:40,0.657,0.945,0.603,1.189,0.837,0.381,0.668,0.625,���k��,10.0,�L
2021/02/20,22:50,0.654,0.947,0.602,1.191,0.838,0.380,0.667,0.624,���k��,9.3,��
2021/02/20,23:00,0.655,0.947,0.603,1.187,0.839,0.381,0.669,0.624,���k��,7.9,��
2021/02/20,23:10,0.656,0.949,0.603,1.189,0.838,0.380,0.668,0.624,�k��,4.6,��
2021/02/20,23:20,0.654,0.947,0.603,1.188,0.838,0.381,0.668,0.625,��,6.0,��
2021/02/20,23:30,0.657,0.949,0.603,1.187,0.836,0.379,0.669,0.623,��,4.8,��
2021/02/20,23:40,0.654,0.946,0.603,1.189,0.837,0.380,0.668,0.623,���k��,4.1,��
2021/02/20,23:50,0.655,0.949,0.603,1.191,0.838,0.380,0.670,0.624,���쐼,5.1,��
